Regional Weather Roundup
Issued by NWS

Home | Current Version | Previous Version | Text Only | Print | Product List | Glossary Off
Versions: 1 2 3 4 5 6 7 8 9 10 11 12 13 14 15 16 17 18 19 20 21 22 23 24 25 26 27 28 29 30 31 32 33 34 35 36 37 38 39 40 41 42 43 44 45 46 47 48 49 50

000
ASUS43 KOAX 240910
RWRNE

WEATHER ROUNDUP FOR NEBRASKA
NATIONAL WEATHER SERVICE OMAHA NE
400 AM CDT FRI OCT 24 2014

NOTES: SATELLITE DATA IS BEING USED TO AUGMENT CLOUD COVER ABOVE
       12000 FEET.
       "FAIR" INDICATES FEW OR NO CLOUDS BELOW 12,000 FEET WITH NO
       SIGNIFICANT WEATHER AND/OR OBSTRUCTIONS TO VISIBILITY.

  * THESE STATIONS DO NOT REPORT WEATHER SUCH AS RAIN...SNOW OR FOG.

NEZ001>004-019>022-054>056-241000-
NEBRASKA PANHANDLE

CITY           SKY/WX    TMP DP  RH WIND       PRES   REMARKS
SCOTTSBLUFF    CLOUDY    45  38  76 CALM      30.01F
ALLIANCE       CLOUDY    39  32  76 W7        29.99S WCI  34
CHADRON        CLOUDY    43  35  73 CALM      29.94S
KIMBALL        CLOUDY    51  35  52 W9        30.07S
SIDNEY         MOCLDY    45  34  65 W9        30.05F
$$

NEZ057>060-069>072-079>082-241000-
SOUTHWEST NEBRASKA

CITY           SKY/WX    TMP DP  RH WIND       PRES   REMARKS
NORTH PLATTE   MOCLDY    47  44  90 NW3       29.99S
IMPERIAL       CLEAR     48  38  68 W6        30.02S
LEXINGTON      MOCLDY    56  53  89 W8        29.98F
MCCOOK         PTCLDY    54  51  90 SW9       30.01S
OGALLALA       PTCLDY    41  36  84 CALM      30.00F
$$

NEZ005>010-023>029-035>040-094-241000-
NORTH CENTRAL NEBRASKA

CITY           SKY/WX    TMP DP  RH WIND       PRES   REMARKS
VALENTINE      CLOUDY    42  36  79 SW8       29.93S
AINSWORTH      MOCLDY    47  38  70 SW6       29.92S
BROKEN BOW     MOCLDY    54  52  93 SW7       29.95S
O`NEILL        CLOUDY    53  52  97 SW9       29.90F
ORD            MOCLDY    54  51  90 SW6       29.92F
THEDFORD       PTCLDY    51  38  60 W3        29.96S
$$

NEZ041-046>049-061>064-073>077-083>087-241000-
SOUTH CENTRAL NEBRASKA

CITY           SKY/WX    TMP DP  RH WIND       PRES   REMARKS
GRAND ISLAND   PTCLDY    58  55  90 SW13      29.96F
AURORA         PTCLDY    56  56 100 SW8       29.97S FOG
HASTINGS       CLEAR     57  53  86 SW9       29.97F
HEBRON         CLEAR     59  56  89 S6        29.99F FOG
HOLDREGE       PTCLDY    55  53  92 SW5       29.99F FOG
KEARNEY *      PTCLDY    54  50  87 S5        29.98F
YORK           PTCLDY    57  57 100 SW9       29.97F FOG
$$

NEZ011>018-030>034-042>045-241000-
NORTHEAST NEBRASKA

CITY           SKY/WX    TMP DP  RH WIND       PRES   REMARKS
NORFOLK        MOCLDY    57  55  93 CALM      29.91F
ALBION         MOCLDY    55  52  90 SE5       29.93S FOG
BLAIR          CLEAR     57  54  89 S8        29.96F
COLUMBUS *     MOCLDY    57  54  88 SW8       29.96S
FREMONT        PTCLDY    59  55  85 S6        29.96F
TEKAMAH        PTCLDY    54  51  90 SE9       29.94
WAYNE          MOCLDY    58  55  88 SW10      29.90F
$$

NEZ050>053-065>068-078-088>093-241000-
SOUTHEAST NEBRASKA

CITY           SKY/WX    TMP DP  RH WIND       PRES   REMARKS
LINCOLN        CLEAR     62  57  83 S12       29.98F
OMAHA EPPLEY   PTCLDY    55  52  89 SE8       29.97
BEATRICE       CLEAR     58  57  96 S8        30.00F FOG
FALLS CITY     CLOUDY    59  58  96 S9        30.01F FOG
NEBRASKA CITY  PTCLDY    56  56 100 S7        30.00F FOG
PLATTSMOUTH    PTCLDY    55  54  94 S6        29.98F FOG
$$

NEZ044-045-051>053-067-241000-
OMAHA AREA

CITY           SKY/WX    TMP DP  RH WIND       PRES   REMARKS
OMAHA EPPLEY   PTCLDY    55  52  89 SE8       29.97
BLAIR          CLEAR     57  54  89 S8        29.96F
FREMONT        PTCLDY    59  55  85 S6        29.96F
MILLARD        CLEAR     55  53  93 SE3       29.96F
OFFUTT AFB     CLEAR     54  54 100 E5        29.98F
PLATTSMOUTH    PTCLDY    55  54  94 S6        29.98F FOG
WAHOO          FAIR      57  54  89 S7        29.95F
$$



USA.gov is the U.S. government's official web portal to all federal, state and local government web resources and services.